CW4829 Weather Reports


Display with metric or nautical units.
time (UTC)temp
F
wind
direction
speed
MPH
gust
MPH
rain 1hr
in
rain 24hr
in
rain mn
in
humidity
%
barometer
mb
20260506234527 53 302 2.0 5.0 0.00 0.74 0.24 54 1009.6
20260506233533 53 331 4.0 7.0 0.00 0.74 0.24 54 1009.6
20260506233057 54 14 3.0 6.0 0.00 0.74 0.24 55 1009.6
20260506232019 54 336 2.0 7.0 0.00 0.74 0.24 55 1010.1
20260506231546 54 276 3.0 7.0 0.00 0.74 0.24 53 1010.1
20260506231101 54 325 4.0 8.0 0.00 0.74 0.24 54 1010.1
20260506230032 54 18 3.0 7.0 0.00 0.74 0.24 54 1010.1
20260506225542 54 331 2.0 8.0 0.00 0.80 0.24 53 1010.1
20260506224541 54 355 3.0 7.0 0.00 0.80 0.24 53 1010.1
20260506223530 54 304 4.0 7.0 0.00 0.80 0.24 53 1010.1
20260506222534 54 337 2.0 6.0 0.00 0.80 0.24 55 1010.1
20260506222057 54 343 4.0 6.0 0.00 0.80 0.24 55 1010.1
20260506221555 54 336 3.0 8.0 0.00 0.80 0.24 55 1010.1
20260506220538 54 336 5.0 8.0 0.00 0.80 0.24 54 1009.8
20260506220052 54 332 5.0 8.0 0.00 0.80 0.24 54 1009.8
20260506215604 55 318 5.0 8.0 0.00 1.05 0.24 54 1009.6
20260506215103 55 315 3.0 8.0 0.00 1.05 0.24 55 1009.6
20260506214040 54 338 2.0 8.0 0.00 1.05 0.24 54 1009.4
20260506213545 54 360 6.0 10.0 0.00 1.05 0.24 54 1009.4
20260506212524 55 340 4.0 11.0 0.00 1.05 0.24 55 1009.3
20260506212022 55 295 5.0 8.0 0.00 1.05 0.24 54 1009.3
20260506211021 55 311 4.0 9.0 0.00 1.05 0.24 55 1009.5
20260506210537 55 313 4.0 9.0 0.00 1.05 0.24 55 1009.5
20260506210039 55 312 3.0 9.0 0.00 1.05 0.24 56 1009.5
20260506205021 55 343 3.0 8.0 0.00 1.06 0.24 55 1009.2
20260506204529 55 355 2.0 8.0 0.00 1.06 0.24 56 1009.2
20260506204100 55 302 3.0 9.0 0.00 1.06 0.24 55 1009.0
20260506203629 55 333 5.0 9.0 0.00 1.06 0.24 56 1009.0
20260506203019 55 5 3.0 8.0 0.00 1.06 0.24 56 1009.0
20260506202542 55 329 4.0 10.0 0.00 1.06 0.24 56 1009.1
20260506202057 55 281 5.0 10.0 0.00 1.06 0.24 55 1009.1
20260506201605 55 5 4.0 9.0 0.00 1.06 0.24 56 1009.1
20260506201110 55 308 6.0 9.0 0.00 1.06 0.24 55 1009.0
20260506200030 55 305 3.0 11.0 0.00 1.06 0.24 58 1009.0
20260506195026 55 9 5.0 9.0 0.00 1.06 0.24 59 1009.2
20260506194035 55 45 3.0 9.0 0.00 1.06 0.24 59 1009.3
20260506193604 55 303 5.0 9.0 0.00 1.06 0.24 59 1009.3
20260506192545 55 9 4.0 9.0 0.00 1.06 0.24 58 1009.1
20260506192052 55 340 2.0 10.0 0.00 1.06 0.24 58 1009.1
20260506191612 56 355 5.0 10.0 0.00 1.06 0.24 58 1009.1
20260506190536 56 301 4.0 9.0 0.00 1.06 0.24 59 1008.9
20260506190101 56 360 5.0 11.0 0.00 1.06 0.24 58 1008.9
20260506185038 57 335 5.0 10.0 0.00 1.06 0.24 59 1009.0
20260506184557 56 351 3.0 9.0 0.00 1.06 0.24 59 1009.0
20260506184107 56 322 6.0 11.0 0.00 1.06 0.24 59 1009.0
20260506183609 56 284 6.0 11.0 0.00 1.06 0.24 60 1009.0
20260506183117 56 199 4.0 10.0 0.00 1.06 0.24 60 1009.0
20260506182607 56 329 5.0 10.0 0.00 1.06 0.24 60 1009.1
20260506182054 56 321 5.0 10.0 0.00 1.06 0.24 60 1009.1
20260506181025 57 336 5.0 10.0 0.00 1.06 0.24 61 1009.1
20260506180532 56 333 3.0 16.0 0.00 1.06 0.24 61 1009.1
20260506175540 56 325 8.0 14.0 0.00 1.06 0.24 61 1009.0
20260506174522 56 284 5.0 10.0 0.00 1.06 0.24 64 1009.0
20260506174049 56 360 3.0 10.0 0.00 1.06 0.24 64 1009.1
20260506173032 56 241 3.0 10.0 0.00 1.06 0.24 65 1009.1
20260506172550 56 44 5.0 8.0 0.00 1.06 0.24 66 1009.0
20260506172044 56 360 2.0 9.0 0.00 1.06 0.24 68 1009.0
20260506171550 55 355 5.0 9.0 0.00 1.06 0.24 67 1009.0
20260506171105 55 250 3.0 10.0 0.00 1.06 0.24 68 1009.1
20260506170624 55 305 5.0 9.0 0.00 1.06 0.24 67 1009.1
20260506170021 55 299 5.0 7.0 0.00 1.06 0.24 69 1009.1
20260506165536 55 220 4.0 6.0 0.00 1.06 0.24 69 1009.3
20260506164526 54 348 5.0 10.0 0.00 1.06 0.24 72 1009.3
20260506164053 54 313 2.0 8.0 0.00 1.06 0.24 72 1009.2
20260506163027 53 249 4.0 10.0 0.00 1.06 0.24 72 1009.2
20260506162546 53 292 4.0 10.0 0.00 1.06 0.24 73 1009.2
20260506162100 53 301 6.0 10.0 0.00 1.06 0.24 74 1009.2
20260506161024 52 37 3.0 8.0 0.00 1.06 0.24 76 1008.9
20260506160546 52 336 4.0 10.0 0.00 1.06 0.24 77 1008.9
20260506160122 52 320 5.0 10.0 0.00 1.06 0.24 77 1008.9
20260506155611 52 67 4.0 8.0 0.00 1.06 0.24 77 1008.8
20260506154532 52 293 3.0 8.0 0.00 1.06 0.24 78 1008.8
20260506154034 52 360 5.0 8.0 0.00 1.06 0.24 78 1008.5
20260506153607 52 74 2.0 9.0 0.00 1.06 0.24 80 1008.5
20260506153120 51 12 5.0 9.0 0.00 1.06 0.24 80 1008.5
20260506152033 51 343 4.0 9.0 0.00 1.06 0.24 80 1008.5
20260506151550 51 283 4.0 11.0 0.00 1.06 0.24 81 1008.5
20260506150519 50 334 5.0 8.0 0.00 1.06 0.24 82 1008.4
20260506150033 50 285 4.0 7.0 0.00 1.06 0.24 82 1008.4
20260506145543 49 350 2.0 8.0 0.00 1.06 0.24 82 1008.5
20260506144544 49 313 5.0 7.0 0.00 1.06 0.24 83 1008.5
20260506144049 49 341 3.0 7.0 0.00 1.06 0.24 84 1008.1
20260506143600 49 348 3.0 8.0 0.00 1.06 0.24 84 1008.1
20260506143114 49 311 3.0 8.0 0.00 1.06 0.24 85 1008.1
20260506142602 48 355 4.0 10.0 0.00 1.06 0.24 84 1007.9
20260506142053 48 355 6.0 10.0 0.00 1.06 0.24 86 1007.9
20260506141552 48 342 3.0 7.0 0.00 1.06 0.24 87 1007.9
20260506141104 48 314 4.0 7.0 0.00 1.06 0.24 87 1007.5
20260506140608 48 338 5.0 8.0 0.00 1.06 0.24 88 1007.5
20260506135532 47 317 4.0 7.0 0.00 1.06 0.24 90 1007.5
20260506135103 47 74 2.0 6.0 0.00 1.06 0.24 90 1007.5
20260506134029 47 322 5.0 8.0 0.00 1.06 0.24 91 1007.4
20260506133605 47 355 5.0 9.0 0.00 1.06 0.24 92 1007.4
20260506133050 46 14 4.0 7.0 0.00 1.06 0.24 92 1007.4
20260506132554 46 341 4.0 12.0 0.00 1.06 0.24 93 1007.5
20260506132053 46 332 4.0 12.0 0.00 1.06 0.24 93 1007.5
20260506131028 46 307 2.0 8.0 0.00 1.06 0.24 93 1007.5
20260506130033 46 305 3.0 6.0 0.00 1.06 0.24 94 1007.5
20260506125559 46 331 3.0 6.0 0.00 1.06 0.24 94 1007.4
20260506125117 46 348 2.0 6.0 0.00 1.06 0.24 94 1007.4
20260506124518 45 337 4.0 7.0 0.00 1.06 0.24 94 1007.4
20260506124026 45 281 3.0 7.0 0.00 1.06 0.24 94 1006.9
20260506123053 45 12 5.0 9.0 0.00 1.06 0.24 95 1006.9
20260506122025 45 9 3.0 4.0 0.00 1.06 0.24 95 1006.4
20260506121554 45 18 2.0 5.0 0.00 1.06 0.24 95 1006.4
20260506120530 44 15 1.0 3.0 0.00 1.06 0.24 95 1006.5
20260506120023 44 15 1.0 4.0 0.00 1.06 0.24 95 1006.5
20260506115541 44 360 2.0 8.0 0.00 1.06 0.24 95 1006.4
20260506114533 45 320 4.0 7.0 0.00 1.06 0.24 95 1006.4
20260506114043 45 59 1.0 8.0 0.00 1.06 0.24 96 1005.8
20260506113551 45 355 2.0 8.0 0.00 1.06 0.24 96 1005.8
20260506112534 46 318 4.0 8.0 0.00 1.06 0.24 96 1005.3
20260506112102 46 351 5.0 8.0 0.00 1.06 0.24 96 1005.3
20260506111605 46 9 4.0 8.0 0.00 1.06 0.24 96 1005.3
20260506111050 46 355 4.0 8.0 0.00 1.06 0.24 96 1005.3
20260506110028 46 17 2.0 5.0 0.00 1.06 0.24 96 1005.3
20260506105546 46 360 3.0 6.0 0.00 1.06 0.24 96 1005.3
20260506104620 46 346 2.0 8.0 0.00 1.06 0.24 96 1005.3
20260506103544 46 17 3.0 5.0 0.00 1.06 0.24 96 1005.3
20260506103049 46 348 0.0 6.0 0.00 1.06 0.24 96 1005.3
20260506102030 46 46 4.0 8.0 0.00 1.06 0.24 96 1005.3
20260506101021 46 327 3.0 5.0 0.00 1.06 0.24 96 1004.3
20260506100537 46 340 2.0 5.0 0.00 1.06 0.24 96 1004.3
20260506095527 46 13 2.0 4.0 0.01 1.06 0.24 96 1004.2
20260506095046 46 360 2.0 3.0 0.01 1.06 0.24 96 1004.2
20260506094558 46 346 1.0 4.0 0.02 1.06 0.24 96 1004.2
20260506094045 46 346 1.0 4.0 0.03 1.06 0.24 96 1003.7
20260506093123 46 69 1.0 4.0 0.03 1.06 0.24 96 1003.7
20260506092620 46 69 1.0 6.0 0.04 1.06 0.24 96 1004.3
20260506092104 46 36 3.0 6.0 0.05 1.06 0.24 96 1004.3
20260506091522 46 338 2.0 8.0 0.06 1.06 0.24 96 1004.3
20260506091047 46 5 3.0 8.0 0.07 1.06 0.24 96 1004.2
20260506090606 46 20 1.0 7.0 0.07 1.06 0.24 96 1004.2
20260506085529 46 347 1.0 6.0 0.07 1.05 0.23 96 1004.6
20260506085053 46 336 3.0 7.0 0.07 1.05 0.23 96 1004.6
20260506084045 46 336 3.0 6.0 0.05 1.03 0.21 96 1004.5
20260506083024 46 5 6.0 11.0 0.05 1.03 0.21 96 1004.5
20260506082543 47 360 4.0 10.0 0.04 1.02 0.20 96 1004.4
20260506082101 47 347 2.0 6.0 0.04 1.01 0.19 96 1004.4
20260506081050 47 333 3.0 10.0 0.02 0.99 0.17 96 1004.2
20260506080533 47 307 4.0 10.0 0.03 0.99 0.17 96 1004.2
20260506073050 46 349 4.0 10.0 0.08 0.98 0.16 96 1003.7
20260506072044 46 283 4.0 10.0 0.08 0.97 0.15 95 1003.9
20260506071543 46 344 3.0 10.0 0.08 0.97 0.15 95 1003.9
20260506071047 46 360 4.0 9.0 0.10 0.97 0.15 95 1003.8
20260506070529 46 229 4.0 9.0 0.10 0.96 0.14 95 1003.8
20260506070113 46 329 3.0 8.0 0.10 0.95 0.13 95 1003.8
20260506062027 47 338 4.0 9.0 0.05 0.89 0.07 95 1003.9
20260506061027 47 336 5.0 12.0 0.03 0.87 0.05 95 1004.2
20260506060551 48 29 5.0 10.0 0.03 0.86 0.04 95 1004.2
20260506051033 49 88 2.0 8.0 0.02 0.84 0.02 94 1004.3
20260506050538 49 344 2.0 5.0 0.01 0.83 0.01 94 1004.3
20260506045046 49 355 4.0 6.0 0.01 0.82 0.00 94 1004.3
20260506044532 49 319 2.0 4.0 0.01 0.82 0.00 94 1004.3
20260506044039 49 360 2.0 5.0 0.01 0.82 0.00 94 1004.3
20260506043538 49 350 1.0 3.0 0.01 0.82 0.00 94 1004.3
20260506043028 49 350 1.0 6.0 0.02 0.82 0.00 94 1004.3
20260506042538 49 341 1.0 6.0 0.02 0.82 0.00 94 1004.2
20260506042024 49 5 2.0 5.0 0.02 0.82 0.00 94 1004.2
20260506041517 49 16 3.0 5.0 0.03 0.82 0.00 94 1004.2
20260506041043 49 43 1.0 5.0 0.03 0.82 0.00 94 1004.2
20260506040543 49 13 1.0 5.0 0.04 0.82 0.00 94 1004.2
20260506040055 49 10 2.0 5.0 0.05 0.82 0.00 94 1004.2
20260506035551 49 15 0.0 3.0 0.05 0.81 0.81 94 1004.6
20260506035033 49 15 1.0 4.0 0.06 0.81 0.81 94 1004.6
20260506034022 49 348 3.0 6.0 0.07 0.81 0.81 94 1004.8
20260506033536 50 5 2.0 8.0 0.07 0.81 0.81 94 1004.8
20260506032514 50 338 2.0 4.0 0.07 0.80 0.80 93 1005.1
20260506032035 50 17 0.0 7.0 0.08 0.80 0.80 93 1005.1
20260506031537 50 21 3.0 7.0 0.08 0.79 0.79 93 1005.1
20260506030524 50 69 2.0 7.0 0.09 0.78 0.78 93 1005.3
20260506025517 51 23 5.0 13.0 0.09 0.76 0.76 93 1005.3
20260506025040 51 344 4.0 13.0 0.11 0.75 0.75 93 1005.3
20260506023521 52 336 5.0 7.0 0.15 0.74 0.74 93 1004.9
20260506023041 52 350 3.0 7.0 0.15 0.73 0.73 93 1004.9
20260506022605 52 13 3.0 8.0 0.16 0.73 0.73 93 1005.1
20260506022111 53 5 3.0 9.0 0.15 0.72 0.72 93 1005.1
20260506021520 53 313 2.0 9.0 0.16 0.71 0.71 97 1005.1
20260506021045 54 309 3.0 8.0 0.15 0.70 0.70 92 1005.1
20260506020544 54 304 1.0 7.0 0.15 0.69 0.69 92 1005.1
20260506020045 55 320 1.0 12.0 0.14 0.68 0.68 92 1005.1
20260506015027 59 305 6.0 10.0 0.10 0.63 0.63 92 1004.4
20260506014537 60 206 4.0 8.0 0.09 0.61 0.61 94 1004.4
20260506014054 60 193 2.0 5.0 0.09 0.60 0.60 94 1004.3
20260506013039 60 194 3.0 8.0 0.08 0.58 0.58 93 1004.3
20260506012545 60 199 2.0 6.0 0.07 0.57 0.57 93 1004.2
20260506012050 60 202 2.0 5.0 0.07 0.56 0.56 93 1004.2
20260506011058 60 185 0.0 5.0 0.06 0.55 0.55 93 1004.0
20260506010605 60 184 1.0 7.0 0.06 0.54 0.54 93 1004.0
20260506005538 60 211 1.0 4.0 0.10 0.53 0.53 93 1003.9
20260506005037 60 211 1.0 5.0 0.10 0.53 0.53 93 1003.9
20260506004028 60 177 1.0 5.0 0.10 0.51 0.51 93 1004.1
20260506003529 60 200 1.0 5.0 0.11 0.51 0.51 92 1004.1
20260506003038 60 200 2.0 5.0 0.11 0.50 0.50 92 1004.1
20260506002601 60 200 2.0 5.0 0.12 0.50 0.50 92 1004.0
20260506002109 60 194 2.0 7.0 0.12 0.49 0.49 92 1004.0
20260506001044 60 232 3.0 7.0 0.15 0.49 0.49 92 1003.9
20260506000554 60 182 2.0 5.0 0.15 0.48 0.48 92 1003.9
20260506000040 60 209 2.0 6.0 0.15 0.47 0.47 92 1003.9
20260505235019 60 200 1.0 5.0 0.12 0.43 0.43 91 1003.8